Location: Aalen
(48.8330°N, 10.1000°E)
Time: 09:30:08
(UTC+01:00)

N. Korean satellite - Pass Details

Date: 06 December 2022
Orbit: 407 x 442 km, 97.3° (Epoch: 04 February)

Event Time Altitude Azimuth Distance (km) Brightness Sun altitude
Rises 06:18:31 0° 5° (N) 2,517 10.1 -15.5°
Reaches altitude 10° 06:20:41 10° 357° (N) 1,631 9.0 -15.1°
Maximum altitude 06:23:55 36° 290° (WNW) 752 7.0 -14.6°
Drops below altitude 10° 06:27:05 10° 222° (SW) 1,595 8.9 -14.1°
Sets 06:29:11 0° 214° (SW) 2,453 10.0 -13.8°
